Location: Caltech
(34.1382°N, 118.1253°W)
Time: 06:22:16
(UTC-07:00)

Iridium 3 - Visible Passes

Search period start: 31 July 2015 00:00
Search period end: 10 August 2015 00:00
Orbit: 776 x 779 km, 86.4° (Epoch: 30 July)

Date Brightness Start Highest point End Pass type
(mag) Time Alt. Az. Time Alt. Az. Time Alt. Az.
31 Jul 8.2 02:51:14 10° NE 02:52:58 12° ENE 02:55:03 10° E visible
31 Jul 5.5 04:29:07 10° N 04:34:16 62° W 04:38:09 18° SSW visible
01 Aug 5.8 03:55:34 10° N 04:00:47 68° E 04:04:02 23° SSE visible
02 Aug 6.9 03:22:26 10° NNE 03:27:08 34° E 03:29:59 20° SE visible
02 Aug 6.8 05:03:43 10° NW 05:07:41 22° W 05:10:24 14° WSW visible
03 Aug 7.8 02:49:55 10° NE 02:53:20 18° ENE 02:55:57 13° ESE visible
03 Aug 6.0 04:29:25 10° NNW 04:34:19 41° W 04:36:23 28° SW visible
04 Aug 5.4 03:55:39 10° N 04:00:53 81° W 04:02:24 47° S visible
05 Aug 6.2 03:22:15 10° N 03:27:19 51° E 03:28:27 44° SE visible
05 Aug 7.2 05:04:48 10° NW 05:07:40 14° W 05:08:52 13° W visible
06 Aug 7.2 02:49:18 10° NNE 02:53:38 27° E 02:54:31 25° E visible
06 Aug 6.5 04:29:55 10° NNW 04:34:20 28° W 04:34:57 27° W visible
07 Aug 8.0 02:17:17 10° NE 02:19:45 14° ENE 02:20:37 14° E visible
07 Aug 5.6 03:55:51 10° NNW 04:00:57 54° W 04:01:03 54° W visible
08 Aug 5.6 03:22:14 10° N 03:27:11 75° NE 03:27:11 75° NE visible
09 Aug 6.7 02:49:00 10° NNE 02:53:20 38° ENE 02:53:20 38° ENE visible
09 Aug 7.1 04:30:40 10° NW 04:33:46 19° WNW 04:33:46 19° WNW visible
